GGUF CAV4-CBX7

Flight info

Callsign GGUF
Flight time N/A
Altitude 5000
Route HOWSE DCT ELKIE
Aircraft PA18/L-SDFGHRWY/S

Departure

Time 2026-04-19 04:31
Airport McBride Airport/Charlie Leake Field (CAV4)

Arrival

Time N/A
Airport Tumbler Ridge Airport (CBX7)
Time Latitude Longitude Altitude Speed Heading
2026-04-19 04:25 53.31208 -120.16655 2498 ft 0 kts 225°
2026-04-19 04:28 53.31204 -120.16661 2501 ft 0 kts 184°
2026-04-19 04:28 53.31221 -120.16631 2499 ft 756 kts 121°
2026-04-19 04:28 53.31197 -120.16630 2502 ft 4 kts 122°
2026-04-19 04:29 53.31190 -120.16585 2499 ft 5 kts 50°
2026-04-19 04:29 53.31224 -120.16555 2500 ft 8 kts 352°
2026-04-19 04:29 53.31222 -120.16576 2502 ft 4 kts 103°
2026-04-19 04:29 53.31223 -120.16556 2500 ft 1 kts 46°
2026-04-19 04:30 53.31285 -120.16654 2499 ft 35 kts 317°
2026-04-19 04:30 53.31566 -120.17092 2546 ft 70 kts 313°
2026-04-19 04:30 53.31940 -120.17657 2716 ft 76 kts 318°
2026-04-19 04:30 53.32446 -120.17920 2820 ft 83 kts 22°
2026-04-19 04:31 53.32952 -120.17766 3105 ft 73 kts
2026-04-19 04:31 53.33464 -120.17859 3292 ft 77 kts 343°
2026-04-19 04:31 53.33970 -120.18174 3517 ft 76 kts 342°
2026-04-19 04:31 53.34499 -120.18263 3702 ft 79 kts
2026-04-19 04:32 53.34969 -120.18105 4035 ft 60 kts 12°
2026-04-19 04:32 53.35277 -120.17911 4274 ft 40 kts 45°
2026-04-19 04:32 53.35542 -120.18117 4290 ft 63 kts 300°
2026-04-19 04:32 53.35818 -120.18812 4386 ft 71 kts 309°
2026-04-19 04:33 53.36201 -120.19256 4570 ft 71 kts 327°
2026-04-19 04:33 53.36617 -120.19651 4774 ft 57 kts 358°
2026-04-19 04:33 53.37002 -120.19596 4904 ft 56 kts 351°
2026-04-19 04:33 53.37371 -120.19950 4972 ft 70 kts 320°
2026-04-19 04:34 53.37803 -120.20344 5124 ft 70 kts 343°
2026-04-19 04:34 53.38242 -120.20548 5277 ft 67 kts 349°
2026-04-19 04:34 53.38683 -120.20567 5475 ft 57 kts 16°
2026-04-19 04:34 53.39051 -120.20603 5665 ft 58 kts 348°
2026-04-19 04:35 53.39434 -120.20871 5819 ft 59 kts 336°
2026-04-19 04:35 53.39787 -120.21279 6001 ft 64 kts 323°
2026-04-19 04:35 53.40132 -120.21774 6256 ft 65 kts 317°
2026-04-19 04:35 53.40441 -120.22364 6494 ft 69 kts 315°
2026-04-19 04:36 53.40848 -120.22520 6859 ft 56 kts 29°
2026-04-19 04:36 53.41289 -120.22226 6807 ft 78 kts 19°
2026-04-19 04:36 53.41840 -120.21974 6922 ft 82 kts 11°
2026-04-19 04:36 53.42386 -120.21835 7076 ft 84 kts
2026-04-19 04:37 53.42961 -120.21766 7149 ft 80 kts
2026-04-19 04:37 53.43580 -120.21792 7277 ft 82 kts 352°
2026-04-19 04:37 53.47928 -120.21553 8352 ft 94 kts 41°
2026-04-19 04:37 53.51130 -120.14800 9461 ft 91 kts 36°
2026-04-19 04:38 53.55854 -120.15149 10247 ft 84 kts 353°
2026-04-19 04:38 53.59273 -120.14536 10921 ft 89 kts
2026-04-19 04:38 53.59658 -120.14320 10723 ft 43 kts
2026-04-19 04:38 53.59859 -120.14588 9311 ft 69 kts 283°
2026-04-19 04:39 53.60242 -120.14678 8410 ft 80 kts 95°
2026-04-19 04:39 53.59916 -120.14601 7815 ft 53 kts 214°
2026-04-19 04:39 53.59615 -120.14794 7557 ft 68 kts 165°
2026-04-19 04:39 53.59250 -120.13960 7278 ft 99 kts 126°
2026-04-19 04:40 53.58695 -120.12806 8720 ft 3473 kts 134°
2026-04-19 04:40 53.58602 -120.12643 7945 ft 78 kts 134°
2026-04-19 04:40 53.58375 -120.11930 7352 ft 57 kts 151°
2026-04-19 04:40 53.58136 -120.11812 7381 ft 25 kts 141°
2026-04-19 04:41 53.58175 -120.11790 7349 ft 11 kts 324°
2026-04-19 04:41 53.58237 -120.11801 7345 ft 28 kts 334°
2026-04-19 04:41 53.58356 -120.11903 7275 ft 34 kts 348°
2026-04-19 04:41 53.58749 -120.11985 6858 ft 98 kts 56°
2026-04-19 04:42 53.58833 -120.11217 6655 ft 94 kts 94°
2026-04-19 04:42 53.58826 -120.10206 6302 ft 56 kts 94°
2026-04-19 04:42 53.58838 -120.09820 6201 ft 37 kts 102°
2026-04-19 04:42 53.58780 -120.09528 6205 ft 14 kts 194°
2026-04-19 04:43 53.58736 -120.09542 6202 ft 7 kts 257°
2026-04-19 04:43 53.58770 -120.09581 6196 ft 3 kts 327°
2026-04-19 04:43 53.58774 -120.09584 6197 ft 0 kts 346°
2026-04-19 04:45 53.58782 -120.09570 6193 ft 7 kts 115°
2026-04-19 04:45 53.58744 -120.09556 6194 ft 8 kts 76°
2026-04-19 04:45 53.58694 -120.09673 6198 ft 28 kts 249°
2026-04-19 04:45 53.58743 -120.10060 6239 ft 38 kts 291°
2026-04-19 04:46 53.58950 -120.10489 6295 ft 56 kts 292°
2026-04-19 04:46 53.58830 -120.11011 6517 ft 53 kts 179°
2026-04-19 04:46 53.58680 -120.10477 6574 ft 65 kts 97°
2026-04-19 04:46 53.58671 -120.09779 6724 ft 57 kts 70°
2026-04-19 04:47 53.59063 -120.09423 6830 ft 67 kts 13°
2026-04-19 04:47 53.59511 -120.09219 6997 ft 65 kts 19°
2026-04-19 04:47 53.59938 -120.08943 7095 ft 66 kts 20°
2026-04-19 04:47 53.60365 -120.08606 7190 ft 69 kts 31°
2026-04-19 04:48 53.60819 -120.08176 7370 ft 73 kts 19°
2026-04-19 04:48 53.64403 -120.04380 8296 ft 82 kts 47°
2026-04-19 04:48 53.67684 -119.98947 9680 ft 87 kts 41°
2026-04-19 04:48 53.70858 -119.92915 10661 ft 86 kts 70°
2026-04-19 04:49 53.73840 -119.86472 11499 ft 87 kts 26°
2026-04-19 04:49 53.78134 -119.84119 12212 ft 80 kts 358°
2026-04-19 04:49 53.82597 -119.81684 11537 ft 97 kts 18°
2026-04-19 04:49 53.83563 -119.73653 7834 ft 99 kts 71°
2026-04-19 04:50 53.84398 -119.68899 5146 ft 77 kts 75°
2026-04-19 04:51 53.84481 -119.68509 4959 ft 71 kts 65°
2026-04-19 04:51 53.84742 -119.67880 4831 ft 65 kts 65°
2026-04-19 04:51 53.84916 -119.67304 4770 ft 41 kts 84°
2026-04-19 04:51 53.84948 -119.67202 4769 ft 9 kts 260°
2026-04-19 04:52 53.84951 -119.67275 4771 ft 1 kts 268°
2026-04-19 04:52 53.84930 -119.67343 4768 ft 17 kts 200°
2026-04-19 04:52 53.84885 -119.67416 4769 ft 6 kts 233°
2026-04-19 04:52 53.84935 -119.67529 4793 ft 23 kts 73°
2026-04-19 04:53 53.84910 -119.67000 4862 ft 47 kts 84°
2026-04-19 04:53 53.84806 -119.66373 5020 ft 47 kts 205°
2026-04-19 04:53 53.84152 -119.66722 5182 ft 67 kts 168°
2026-04-19 04:53 53.81181 -119.65328 6508 ft 62 kts 159°
2026-04-19 04:54 53.78099 -119.61676 7541 ft 66 kts 136°
2026-04-19 04:54 53.77342 -119.61279 7595 ft 60 kts 213°
2026-04-19 04:54 53.77166 -119.62888 9598 ft 0 kts 289°
2026-04-19 04:54 53.77094 -119.62904 9144 ft 114 kts 279°
2026-04-19 04:55 53.76956 -119.63738 8234 ft 54 kts 224°
2026-04-19 04:55 53.76829 -119.64133 8024 ft 41 kts 271°
2026-04-19 04:55 53.76863 -119.64613 7847 ft 41 kts 260°
2026-04-19 04:55 53.76614 -119.64654 7647 ft 44 kts 160°
2026-04-19 04:56 53.76253 -119.64564 7173 ft 73 kts 160°
2026-04-19 04:56 53.75931 -119.63837 6361 ft 68 kts 118°
2026-04-19 04:56 53.75812 -119.63469 6327 ft 4 kts 91°
2026-04-19 04:56 53.75814 -119.63581 6292 ft 16 kts 93°
2026-04-19 04:57 53.75711 -119.63093 6474 ft 932 kts 108°
2026-04-19 04:57 53.75577 -119.60746 7971 ft 0 kts 155°
2026-04-19 04:57 53.74691 -119.56388 8440 ft 0 kts 14°
2026-04-19 04:58 53.75164 -119.56215 7613 ft 132 kts 11°
2026-04-19 04:58 53.75795 -119.55988 7100 ft 21 kts 188°
2026-04-19 04:58 53.76326 -119.55764 6619 ft 89 kts 12°
2026-04-19 04:58 53.81148 -119.50236 8037 ft 2200 kts 73°
2026-04-19 04:59 53.81206 -119.49344 7690 ft 74 kts 107°
2026-04-19 04:59 53.81105 -119.48740 7665 ft 39 kts 127°
2026-04-19 04:59 53.81024 -119.48525 7613 ft 0 kts 124°
2026-04-19 04:59 53.81005 -119.48401 7633 ft 20 kts 126°
2026-04-19 05:00 53.80934 -119.48177 7615 ft 28 kts 122°
2026-04-19 05:00 53.80757 -119.48232 7505 ft 37 kts 223°
2026-04-19 05:00 53.80569 -119.48482 7474 ft 34 kts 217°
2026-04-19 05:00 53.80383 -119.48686 7452 ft 32 kts 212°
2026-04-19 05:01 53.80200 -119.48880 7411 ft 30 kts 212°
2026-04-19 05:01 53.80011 -119.48999 7363 ft 30 kts 201°
2026-04-19 05:01 53.79814 -119.48968 7301 ft 30 kts 172°
2026-04-19 05:01 53.79602 -119.48850 7043 ft 62 kts 145°
2026-04-19 05:02 53.79746 -119.48532 6638 ft 63 kts 207°
2026-04-19 05:02 53.79032 -119.48476 4795 ft 121 kts 166°
2026-04-19 05:02 53.78306 -119.48360 4819 ft 37 kts 222°